Time,TemperatureF,DewpointF,PressureIn,WindDirection,WindDirectionDegrees,WindSpeedMPH,WindSpeedGustMPH,Humidity,HourlyPrecipIn,Conditions,Clouds,dailyrainin,SolarRadiationWatts/m^2,SoftwareType,DateUTC
2013-03-31 00:06:00,65.2,60.9,29.88,SSE,168,4.0,6.0,86,0.00,,---,0.65,0.00,VWS V14.00,2013-03-31 05:06:00,
2013-03-31 00:14:00,65.8,60.8,29.86,South,190,6.0,10.0,84,0.00,,---,0.00,0.00,VWS V14.00,2013-03-31 05:14:00,
2013-03-31 00:22:00,66.2,60.9,29.87,SSE,168,4.0,10.0,83,0.00,,---,0.00,0.00,VWS V14.00,2013-03-31 05:22:00,
2013-03-31 00:30:00,66.1,60.8,29.87,South,181,7.0,10.0,83,0.00,,---,0.00,0.00,VWS V14.00,2013-03-31 05:30:00,
2013-03-31 00:37:00,66.2,60.9,29.87,South,173,4.0,10.0,83,0.00,,---,0.00,0.00,VWS V14.00,2013-03-31 05:37:00,
2013-03-31 00:42:00,66.3,60.7,29.87,South,170,6.0,9.0,82,0.00,,---,0.00,0.00,VWS V14.00,2013-03-31 05:42:00,
2013-03-31 00:50:00,66.2,60.9,29.87,South,181,10.0,10.0,83,0.00,,---,0.00,0.00,VWS V14.00,2013-03-31 05:50:00,
2013-03-31 00:58:00,66.0,60.7,29.86,South,176,6.0,10.0,83,0.00,,---,0.00,0.00,VWS V14.00,2013-03-31 05:58:00,
2013-03-31 01:07:00,65.8,60.5,29.87,SSE,167,3.0,10.0,83,0.00,,---,0.00,0.00,VWS V14.00,2013-03-31 06:07:00,
2013-03-31 01:14:00,65.6,60.6,29.87,South,186,4.0,7.0,84,0.00,,---,0.00,0.00,VWS V14.00,2013-03-31 06:14:00,
2013-03-31 01:22:00,65.5,60.5,29.87,South,169,5.0,7.0,84,0.00,,---,0.00,0.00,VWS V14.00,2013-03-31 06:22:00,
2013-03-31 01:31:00,65.6,60.6,29.87,SSE,163,5.0,9.0,84,0.00,,---,0.00,0.00,VWS V14.00,2013-03-31 06:31:00,
2013-03-31 01:37:00,65.5,60.5,29.87,South,172,4.0,9.0,84,0.00,,---,0.00,0.00,VWS V14.00,2013-03-31 06:37:00,
2013-03-31 01:43:00,65.4,60.5,29.87,South,169,3.0,5.0,84,0.00,,---,0.00,0.00,VWS V14.00,2013-03-31 06:43:00,
2013-03-31 01:51:00,65.4,60.8,29.87,South,185,2.0,6.0,85,0.00,,---,0.00,0.00,VWS V14.00,2013-03-31 06:51:00,
2013-03-31 01:59:00,64.9,60.6,29.87,South,171,2.0,6.0,86,0.00,,---,0.00,0.00,VWS V14.00,2013-03-31 06:59:00,
2013-03-31 02:07:00,64.9,60.6,29.87,South,170,5.0,6.0,86,0.00,,---,0.00,0.00,VWS V14.00,2013-03-31 07:07:00,
2013-03-31 02:15:00,65.0,60.7,29.87,SSE,168,4.0,7.0,86,0.00,,---,0.00,0.00,VWS V14.00,2013-03-31 07:15:00,
2013-03-31 02:23:00,64.8,60.5,29.86,South,186,4.0,7.0,86,0.00,,---,0.00,0.00,VWS V14.00,2013-03-31 07:23:00,
2013-03-31 02:31:00,64.7,60.8,29.86,South,182,4.0,7.0,87,0.00,,---,0.00,0.00,VWS V14.00,2013-03-31 07:31:00,
2013-03-31 02:37:00,64.7,60.8,29.86,SSE,165,4.0,7.0,87,0.00,,---,0.00,0.00,VWS V14.00,2013-03-31 07:37:00,
2013-03-31 02:43:00,64.6,61.0,29.86,South,173,3.0,5.0,88,0.00,,---,0.00,0.00,VWS V14.00,2013-03-31 07:43:00,
2013-03-31 02:51:00,64.6,60.7,29.86,South,181,2.0,6.0,87,0.00,,---,0.00,0.00,VWS V14.00,2013-03-31 07:51:00,
2013-03-31 02:59:00,64.3,60.7,29.86,SSE,161,3.0,6.0,88,0.00,,---,0.00,0.00,VWS V14.00,2013-03-31 07:59:00,
2013-03-31 03:07:00,64.1,60.5,29.86,SSE,167,3.0,6.0,88,0.00,,---,0.00,0.00,VWS V14.00,2013-03-31 08:07:00,
2013-03-31 03:16:00,64.2,60.9,29.86,SSE,151,2.0,5.0,89,0.00,,---,0.00,0.00,VWS V14.00,2013-03-31 08:16:00,
2013-03-31 03:24:00,64.2,60.9,29.86,SSE,151,1.0,5.0,89,0.00,,---,0.00,0.00,VWS V14.00,2013-03-31 08:24:00,
2013-03-31 03:32:00,64.1,60.8,29.86,SSE,157,2.0,5.0,89,0.00,,---,0.00,0.00,VWS V14.00,2013-03-31 08:32:00,
2013-03-31 03:37:00,64.0,61.0,29.86,SSE,157,2.0,5.0,90,0.00,,---,0.00,0.00,VWS V14.00,2013-03-31 08:37:00,
2013-03-31 03:44:00,64.0,60.7,29.86,South,173,2.0,3.0,89,0.00,,---,0.00,0.00,VWS V14.00,2013-03-31 08:44:00,
2013-03-31 03:52:00,63.5,60.5,29.85,South,173,2.0,3.0,90,0.00,,---,0.00,0.00,VWS V14.00,2013-03-31 08:52:00,
2013-03-31 04:00:00,63.4,60.7,29.85,South,173,1.0,3.0,91,0.00,,---,0.00,0.00,VWS V14.00,2013-03-31 09:00:00,
2013-03-31 04:07:00,63.4,60.7,29.85,South,175,2.0,3.0,91,0.00,,---,0.00,0.00,VWS V14.00,2013-03-31 09:07:00,
2013-03-31 04:12:00,63.1,60.4,29.85,South,174,2.0,2.0,91,0.00,,---,0.00,0.00,VWS V14.00,2013-03-31 09:12:00,
2013-03-31 04:20:00,62.9,60.5,29.85,SSW,199,2.0,4.0,92,0.00,,---,0.00,0.00,VWS V14.00,2013-03-31 09:20:00,
2013-03-31 04:28:00,62.9,60.5,29.85,South,188,2.0,5.0,92,0.00,,---,0.00,0.00,VWS V14.00,2013-03-31 09:28:00,
2013-03-31 04:37:00,62.9,60.5,29.83,SSE,162,4.0,6.0,92,0.00,,---,0.00,0.00,VWS V14.00,2013-03-31 09:37:00,
2013-03-31 04:44:00,63.0,60.6,29.83,SSE,158,6.0,6.0,92,0.00,,---,0.00,0.00,VWS V14.00,2013-03-31 09:44:00,
2013-03-31 04:52:00,63.1,60.7,29.83,South,183,3.0,9.0,92,0.00,,---,0.00,0.00,VWS V14.00,2013-03-31 09:52:00,
2013-03-31 05:00:00,63.2,60.8,29.83,SSE,167,4.0,9.0,92,0.00,,---,0.00,0.00,VWS V14.00,2013-03-31 10:00:00,
2013-03-31 05:07:00,63.1,60.7,29.83,South,172,3.0,9.0,92,0.00,,---,0.00,0.00,VWS V14.00,2013-03-31 10:07:00,
2013-03-31 05:13:00,63.0,60.6,29.83,South,181,4.0,6.0,92,0.00,,---,0.00,0.00,VWS V14.00,2013-03-31 10:13:00,
2013-03-31 05:21:00,63.2,61.2,29.83,South,178,4.0,6.0,93,0.00,,---,0.00,0.00,VWS V14.00,2013-03-31 10:21:00,
2013-03-31 05:29:00,63.4,61.3,29.83,South,175,4.0,6.0,93,0.00,,---,0.00,0.00,VWS V14.00,2013-03-31 10:29:00,
2013-03-31 05:37:00,63.8,61.7,29.83,South,174,4.0,9.0,93,0.00,,---,0.00,0.00,VWS V14.00,2013-03-31 10:37:00,
2013-03-31 05:45:00,63.8,61.4,29.83,South,190,5.0,9.0,92,0.00,,---,0.00,0.00,VWS V14.00,2013-03-31 10:45:00,
2013-03-31 05:53:00,64.0,61.6,29.83,South,178,4.0,11.0,92,0.00,,---,0.00,0.00,VWS V14.00,2013-03-31 10:53:00,
2013-03-31 06:01:00,63.9,61.2,29.83,South,178,4.0,11.0,91,0.00,,---,0.00,0.00,VWS V14.00,2013-03-31 11:01:00,
2013-03-31 06:07:00,64.1,61.7,29.82,South,179,5.0,11.0,92,0.00,,---,0.00,0.00,VWS V14.00,2013-03-31 11:07:00,
2013-03-31 06:13:00,64.1,61.7,29.82,SSE,168,7.0,9.0,92,0.00,,---,0.00,0.00,VWS V14.00,2013-03-31 11:13:00,
2013-03-31 06:21:00,64.2,61.5,29.82,South,175,5.0,10.0,91,0.00,,---,0.00,0.00,VWS V14.00,2013-03-31 11:21:00,
2013-03-31 06:29:00,64.3,61.9,29.82,South,177,5.0,10.0,92,0.00,,---,0.00,0.00,VWS V14.00,2013-03-31 11:29:00,
2013-03-31 06:37:00,64.4,62.0,29.82,South,171,5.0,11.0,92,0.00,,---,0.00,0.00,VWS V14.00,2013-03-31 11:37:00,
2013-03-31 06:45:00,64.5,62.1,29.82,South,180,7.0,10.0,92,0.00,,---,0.00,0.00,VWS V14.00,2013-03-31 11:45:00,
2013-03-31 06:54:00,64.7,62.0,29.81,South,177,4.0,10.0,91,0.00,,---,0.00,0.00,VWS V14.00,2013-03-31 11:54:00,
2013-03-31 07:02:00,64.7,62.0,29.81,South,178,5.0,10.0,91,0.00,,---,0.00,0.00,VWS V14.00,2013-03-31 12:02:00,
2013-03-31 07:07:00,64.7,62.0,29.82,South,171,4.0,10.0,91,0.00,,---,0.00,0.00,VWS V14.00,2013-03-31 12:07:00,
2013-03-31 07:14:00,64.6,61.9,29.82,South,175,6.0,6.0,91,0.00,,---,0.00,0.00,VWS V14.00,2013-03-31 12:14:00,
2013-03-31 07:22:00,64.7,62.0,29.82,SSE,152,4.0,10.0,91,0.00,,---,0.00,0.00,VWS V14.00,2013-03-31 12:22:00,
2013-03-31 07:30:00,64.8,62.1,29.82,SSE,163,4.0,10.0,91,0.00,,---,0.00,5.00,VWS V14.00,2013-03-31 12:30:00,
2013-03-31 07:37:00,65.0,62.3,29.82,SSE,161,6.0,10.0,91,0.00,,---,0.00,7.00,VWS V14.00,2013-03-31 12:37:00,
2013-03-31 07:42:00,65.0,62.3,29.82,SE,144,6.0,6.0,91,0.00,,---,0.00,9.00,VWS V14.00,2013-03-31 12:42:00,
2013-03-31 07:50:00,65.2,62.2,29.82,SSE,159,2.0,6.0,90,0.00,,---,0.00,7.00,VWS V14.00,2013-03-31 12:50:00,
2013-03-31 07:58:00,65.0,62.0,29.83,SSE,160,3.0,6.0,90,0.00,,---,0.00,12.00,VWS V14.00,2013-03-31 12:58:00,
2013-03-31 08:06:00,65.1,62.1,29.83,SSE,164,4.0,6.0,90,0.00,,---,0.00,9.00,VWS V14.00,2013-03-31 13:06:00,
2013-03-31 08:14:00,65.1,62.4,29.83,SSE,163,6.0,7.0,91,0.00,,---,0.00,7.00,VWS V14.00,2013-03-31 13:14:00,
2013-03-31 08:22:00,65.3,62.3,29.82,SSE,161,4.0,7.0,90,0.00,,---,0.00,5.00,VWS V14.00,2013-03-31 13:22:00,
2013-03-31 08:30:00,65.4,62.4,29.82,South,186,4.0,7.0,90,0.00,,---,0.00,0.00,VWS V14.00,2013-03-31 13:30:00,
2013-03-31 08:38:00,65.6,62.9,29.83,South,187,9.0,9.0,91,0.00,,---,0.00,0.00,VWS V14.00,2013-03-31 13:38:00,
2013-03-31 08:46:00,65.8,62.8,29.83,SSW,209,3.0,9.0,90,0.00,,---,0.00,0.00,VWS V14.00,2013-03-31 13:46:00,
2013-03-31 08:55:00,66.0,63.0,29.85,West,259,0.0,9.0,90,0.00,,---,0.00,0.00,VWS V14.00,2013-03-31 13:55:00,
2013-03-31 09:03:00,66.1,62.8,29.85,North,360,10.0,18.0,89,0.00,,---,0.00,0.00,VWS V14.00,2013-03-31 14:03:00,
2013-03-31 09:32:00,57.5,55.2,29.95,NE,35,7.0,17.0,92,0.07,,---,0.07,0.00,VWS V14.00,2013-03-31 14:32:00,
2013-03-31 09:37:00,57.4,55.4,29.93,NNW,345,2.0,17.0,93,0.10,,---,0.10,0.00,VWS V14.00,2013-03-31 14:37:00,
2013-03-31 09:44:00,57.4,55.4,29.93,North,355,0.0,4.0,93,0.14,,---,0.14,0.00,VWS V14.00,2013-03-31 14:44:00,
2013-03-31 09:52:00,57.5,55.8,29.94,NNE,21,0.0,4.0,94,0.15,,---,0.15,0.00,VWS V14.00,2013-03-31 14:52:00,
2013-03-31 10:00:00,57.6,55.9,29.94,NE,44,3.0,4.0,94,0.15,,---,0.15,7.00,VWS V14.00,2013-03-31 15:00:00,
2013-03-31 10:07:00,57.7,55.7,29.92,ENE,74,2.0,6.0,93,0.15,,---,0.15,18.00,VWS V14.00,2013-03-31 15:07:00,
2013-03-31 10:12:00,57.7,55.7,29.92,East,82,3.0,5.0,93,0.15,,---,0.15,33.00,VWS V14.00,2013-03-31 15:12:00,
2013-03-31 10:20:00,57.8,55.8,29.92,ESE,102,4.0,6.0,93,0.15,,---,0.15,72.00,VWS V14.00,2013-03-31 15:20:00,
2013-03-31 10:28:00,58.1,56.1,29.92,ESE,104,3.0,6.0,93,0.15,,---,0.15,109.00,VWS V14.00,2013-03-31 15:28:00,
2013-03-31 10:36:00,58.3,56.0,29.91,ESE,107,2.0,6.0,92,0.15,,---,0.15,139.00,VWS V14.00,2013-03-31 15:36:00,
2013-03-31 10:44:00,58.6,56.3,29.91,ESE,107,2.0,6.0,92,0.05,,---,0.15,199.00,VWS V14.00,2013-03-31 15:44:00,
2013-03-31 10:52:00,59.1,56.8,29.90,ESE,107,4.0,6.0,92,0.05,,---,0.15,388.00,VWS V14.00,2013-03-31 15:52:00,
2013-03-31 11:00:00,59.9,57.6,29.90,ESE,109,3.0,6.0,92,0.05,,---,0.15,701.00,VWS V14.00,2013-03-31 16:00:00,
2013-03-31 11:08:00,61.0,57.7,29.90,East,100,3.0,6.0,89,0.00,,---,0.15,826.00,VWS V14.00,2013-03-31 16:08:00,
2013-03-31 11:21:00,60.7,57.8,29.90,ESE,113,4.0,6.0,90,0.00,,---,0.15,320.00,VWS V14.00,2013-03-31 16:21:00,
2013-03-31 11:29:00,60.8,57.5,29.91,ESE,111,2.0,6.0,89,0.00,,---,0.15,334.00,VWS V14.00,2013-03-31 16:29:00,
2013-03-31 11:37:00,61.6,58.3,29.92,ESE,109,1.0,6.0,89,0.00,,---,0.15,424.00,VWS V14.00,2013-03-31 16:37:00,
2013-03-31 11:45:00,61.8,57.9,29.92,ESE,109,0.0,1.0,87,0.00,,---,0.15,418.00,VWS V14.00,2013-03-31 16:45:00,
2013-03-31 11:53:00,62.0,58.1,29.92,East,94,3.0,3.0,87,0.00,,---,0.15,345.00,VWS V14.00,2013-03-31 16:53:00,
2013-03-31 12:01:00,62.1,58.2,29.92,East,95,0.0,3.0,87,0.00,,---,0.15,362.00,VWS V14.00,2013-03-31 17:01:00,
2013-03-31 12:07:00,62.2,58.3,29.92,East,96,1.0,3.0,87,0.00,,---,0.15,360.00,VWS V14.00,2013-03-31 17:07:00,
2013-03-31 12:13:00,62.7,59.1,29.92,East,96,2.0,2.0,88,0.00,,---,0.15,454.00,VWS V14.00,2013-03-31 17:13:00,
2013-03-31 12:21:00,62.9,58.7,29.92,ENE,70,0.0,2.0,86,0.00,,---,0.15,438.00,VWS V14.00,2013-03-31 17:21:00,
2013-03-31 12:29:00,63.5,58.9,29.92,South,171,6.0,6.0,85,0.00,,---,0.15,454.00,VWS V14.00,2013-03-31 17:29:00,
2013-03-31 12:37:00,63.7,59.1,29.93,SE,146,2.0,6.0,85,0.00,,---,0.15,464.00,VWS V14.00,2013-03-31 17:37:00,
2013-03-31 12:45:00,63.9,59.6,29.93,South,190,0.0,3.0,86,0.00,,---,0.15,373.00,VWS V14.00,2013-03-31 17:45:00,
2013-03-31 12:54:00,64.4,58.8,29.94,WSW,257,0.0,4.0,82,0.00,,---,0.15,306.00,VWS V14.00,2013-03-31 17:54:00,
2013-03-31 13:02:00,63.9,59.0,29.94,North,360,4.0,5.0,84,0.00,,---,0.15,255.00,VWS V14.00,2013-03-31 18:02:00,
2013-03-31 13:07:00,63.5,58.9,29.94,North,9,3.0,6.0,85,0.00,,---,0.15,323.00,VWS V14.00,2013-03-31 18:07:00,
2013-03-31 13:14:00,63.5,58.9,29.94,North,351,0.0,5.0,85,0.00,,---,0.15,332.00,VWS V14.00,2013-03-31 18:14:00,
2013-03-31 13:22:00,64.2,58.9,29.93,North,360,0.0,5.0,83,0.00,,---,0.15,374.00,VWS V14.00,2013-03-31 18:22:00,
2013-03-31 13:30:00,64.4,59.5,29.93,North,360,0.0,5.0,84,0.00,,---,0.15,420.00,VWS V14.00,2013-03-31 18:30:00,
2013-03-31 13:37:00,64.4,59.1,29.93,NE,35,0.0,5.0,83,0.00,,---,0.15,413.00,VWS V14.00,2013-03-31 18:37:00,
2013-03-31 13:46:00,63.0,58.8,29.93,ENE,77,0.0,0.0,86,0.00,,---,0.15,387.00,VWS V14.00,2013-03-31 18:46:00,
2013-03-31 13:54:00,63.3,58.7,29.92,ENE,77,0.0,0.0,85,0.00,,---,0.15,374.00,VWS V14.00,2013-03-31 18:54:00,
2013-03-31 14:02:00,63.5,58.9,29.92,ENE,77,0.0,0.0,85,0.00,,---,0.15,367.00,VWS V14.00,2013-03-31 19:02:00,
2013-03-31 14:10:00,63.7,59.1,29.91,ENE,77,0.0,0.0,85,0.00,,---,0.15,390.00,VWS V14.00,2013-03-31 19:10:00,
2013-03-31 14:19:00,64.7,59.8,29.91,ENE,77,0.0,0.0,84,0.00,,---,0.15,480.00,VWS V14.00,2013-03-31 19:19:00,
2013-03-31 14:27:00,65.8,59.8,29.91,ENE,77,0.0,0.0,81,0.00,,---,0.15,504.00,VWS V14.00,2013-03-31 19:27:00,
2013-03-31 14:35:00,65.9,59.9,29.91,ENE,76,0.0,0.0,81,0.00,,---,0.15,512.00,VWS V14.00,2013-03-31 19:35:00,
2013-03-31 14:43:00,66.5,60.8,29.91,ENE,76,0.0,0.0,82,0.00,,---,0.15,700.00,VWS V14.00,2013-03-31 19:43:00,
2013-03-31 14:51:00,68.5,61.7,29.91,NNW,341,0.0,0.0,79,0.00,,---,0.15,559.00,VWS V14.00,2013-03-31 19:51:00,
2013-03-31 14:59:00,69.3,61.0,29.91,NNW,338,0.0,0.0,75,0.00,,---,0.15,756.00,VWS V14.00,2013-03-31 19:59:00,
2013-03-31 15:07:00,69.6,61.3,29.90,NE,55,0.0,0.0,75,0.00,,---,0.15,802.00,VWS V14.00,2013-03-31 20:07:00,
2013-03-31 15:15:00,70.0,61.7,29.90,North,355,0.0,0.0,75,0.00,,---,0.15,775.00,VWS V14.00,2013-03-31 20:15:00,
2013-03-31 15:23:00,70.0,61.0,29.90,North,360,0.0,0.0,73,0.00,,---,0.15,756.00,VWS V14.00,2013-03-31 20:23:00,
2013-03-31 15:31:00,70.6,60.8,29.90,NNE,24,0.0,0.0,71,0.00,,---,0.15,752.00,VWS V14.00,2013-03-31 20:31:00,
2013-03-31 15:37:00,70.4,61.0,29.89,NW,317,0.0,0.0,72,0.00,,---,0.15,729.00,VWS V14.00,2013-03-31 20:37:00,
2013-03-31 15:43:00,71.1,61.6,29.89,NNW,338,0.0,0.0,72,0.00,,---,0.15,719.00,VWS V14.00,2013-03-31 20:43:00,
2013-03-31 15:51:00,71.6,61.7,29.89,WNW,300,0.0,0.0,71,0.00,,---,0.15,701.00,VWS V14.00,2013-03-31 20:51:00,
2013-03-31 16:00:00,72.1,61.8,29.89,NW,319,0.0,0.0,70,0.00,,---,0.15,675.00,VWS V14.00,2013-03-31 21:00:00,
2013-03-31 16:07:00,72.3,61.6,29.89,West,261,0.0,0.0,69,0.00,,---,0.15,686.00,VWS V14.00,2013-03-31 21:07:00,
2013-03-31 16:16:00,73.6,61.5,29.89,WNW,300,0.0,3.0,66,0.00,,---,0.15,652.00,VWS V14.00,2013-03-31 21:16:00,
2013-03-31 16:24:00,73.1,61.5,29.89,NNE,22,6.0,9.0,67,0.00,,---,0.15,693.00,VWS V14.00,2013-03-31 21:24:00,
2013-03-31 16:36:00,73.0,60.1,29.88,North,355,4.0,11.0,64,0.00,,---,0.15,603.00,VWS V14.00,2013-03-31 21:36:00,
2013-03-31 16:44:00,73.1,59.8,29.88,NNE,12,3.0,7.0,63,0.00,,---,0.15,522.00,VWS V14.00,2013-03-31 21:44:00,
2013-03-31 16:52:00,72.8,59.0,29.88,North,355,4.0,7.0,62,0.00,,---,0.15,524.00,VWS V14.00,2013-03-31 21:52:00,
2013-03-31 17:00:00,72.5,59.2,29.88,North,349,4.0,11.0,63,0.00,,---,0.15,489.00,VWS V14.00,2013-03-31 22:00:00,
2013-03-31 17:07:00,72.6,59.3,29.88,NNW,338,10.0,11.0,63,0.00,,---,0.15,475.00,VWS V14.00,2013-03-31 22:07:00,
2013-03-31 17:12:00,72.7,59.4,29.88,NNE,15,4.0,9.0,63,0.00,,---,0.15,446.00,VWS V14.00,2013-03-31 22:12:00,
2013-03-31 17:20:00,72.4,58.7,29.88,North,355,9.0,10.0,62,0.00,,---,0.15,422.00,VWS V14.00,2013-03-31 22:20:00,
2013-03-31 17:29:00,72.4,60.0,29.87,North,9,3.0,10.0,65,0.00,,---,0.15,397.00,VWS V14.00,2013-03-31 22:29:00,
2013-03-31 17:37:00,72.4,58.7,29.87,NNW,344,5.0,10.0,62,0.00,,---,0.15,367.00,VWS V14.00,2013-03-31 22:37:00,
2013-03-31 17:45:00,71.2,58.0,29.87,NNW,340,3.0,8.0,63,0.00,,---,0.15,341.00,VWS V14.00,2013-03-31 22:45:00,
2013-03-31 17:53:00,71.1,57.4,29.86,NNW,348,1.0,8.0,62,0.00,,---,0.15,316.00,VWS V14.00,2013-03-31 22:53:00,
2013-03-31 18:01:00,71.2,58.4,29.86,North,355,0.0,8.0,64,0.00,,---,0.15,281.00,VWS V14.00,2013-03-31 23:01:00,
2013-03-31 18:07:00,71.3,57.2,29.87,North,5,0.0,8.0,61,0.00,,---,0.15,258.00,VWS V14.00,2013-03-31 23:07:00,
2013-03-31 18:13:00,71.5,57.8,29.87,North,11,0.0,0.0,62,0.00,,---,0.15,237.00,VWS V14.00,2013-03-31 23:13:00,
2013-03-31 18:21:00,71.2,57.1,29.88,North,355,1.0,6.0,61,0.00,,---,0.15,207.00,VWS V14.00,2013-03-31 23:21:00,
2013-03-31 18:29:00,71.1,57.0,29.88,NNE,13,0.0,6.0,61,0.00,,---,0.15,178.00,VWS V14.00,2013-03-31 23:29:00,
2013-03-31 18:37:00,71.0,57.3,29.88,North,355,0.0,6.0,62,0.00,,---,0.15,151.00,VWS V14.00,2013-03-31 23:37:00,
2013-03-31 18:45:00,70.5,56.9,29.88,North,360,0.0,0.0,62,0.00,,---,0.15,128.00,VWS V14.00,2013-03-31 23:45:00,
2013-03-31 18:53:00,70.0,57.3,29.88,NW,325,0.0,0.0,64,0.00,,---,0.15,84.00,VWS V14.00,2013-03-31 23:53:00,
2013-03-31 19:01:00,69.3,57.0,29.88,NNW,344,0.0,0.0,65,0.00,,---,0.15,33.00,VWS V14.00,2013-04-01 00:01:00,
2013-03-31 19:07:00,69.0,57.2,29.88,North,355,0.0,0.0,66,0.00,,---,0.15,32.00,VWS V14.00,2013-04-01 00:07:00,
2013-03-31 19:13:00,68.7,57.3,29.88,North,5,0.0,0.0,67,0.00,,---,0.15,23.00,VWS V14.00,2013-04-01 00:13:00,
2013-03-31 19:21:00,68.3,57.3,29.88,NNW,335,0.0,0.0,68,0.00,,---,0.15,18.00,VWS V14.00,2013-04-01 00:21:00,
2013-03-31 19:29:00,67.6,57.1,29.88,NNW,343,0.0,0.0,69,0.00,,---,0.15,12.00,VWS V14.00,2013-04-01 00:29:00,
2013-03-31 19:37:00,67.1,56.6,29.89,NW,309,0.0,0.0,69,0.00,,---,0.15,7.00,VWS V14.00,2013-04-01 00:37:00,
2013-03-31 19:46:00,66.4,56.7,29.89,NW,309,0.0,0.0,71,0.00,,---,0.15,0.00,VWS V14.00,2013-04-01 00:46:00,
2013-03-31 19:54:00,65.7,56.4,29.89,NW,309,0.0,0.0,72,0.00,,---,0.15,0.00,VWS V14.00,2013-04-01 00:54:00,
2013-03-31 20:02:00,64.7,56.2,29.89,NW,309,0.0,0.0,74,0.00,,---,0.15,0.00,VWS V14.00,2013-04-01 01:02:00,
2013-03-31 20:07:00,64.4,55.9,29.90,NW,309,0.0,0.0,74,0.00,,---,0.15,0.00,VWS V14.00,2013-04-01 01:07:00,
2013-03-31 20:14:00,64.2,55.8,29.90,NW,309,0.0,0.0,74,0.00,,---,0.15,0.00,VWS V14.00,2013-04-01 01:14:00,
2013-03-31 20:22:00,63.0,56.0,29.90,NW,309,0.0,0.0,78,0.00,,---,0.15,0.00,VWS V14.00,2013-04-01 01:22:00,
2013-03-31 20:30:00,62.8,55.5,29.90,NW,309,0.0,0.0,77,0.00,,---,0.15,0.00,VWS V14.00,2013-04-01 01:30:00,
2013-03-31 20:37:00,61.3,56.1,29.90,NW,309,0.0,0.0,83,0.00,,---,0.15,0.00,VWS V14.00,2013-04-01 01:37:00,
2013-03-31 20:42:00,60.9,57.0,29.90,NW,309,0.0,0.0,87,0.00,,---,0.15,0.00,VWS V14.00,2013-04-01 01:42:00,
2013-03-31 20:50:00,60.5,56.6,29.90,NW,309,0.0,0.0,87,0.00,,---,0.15,0.00,VWS V14.00,2013-04-01 01:50:00,
2013-03-31 20:58:00,60.1,56.2,29.91,NW,309,0.0,0.0,87,0.00,,---,0.15,0.00,VWS V14.00,2013-04-01 01:58:00,
2013-03-31 21:07:00,59.8,56.2,29.91,NW,309,0.0,0.0,88,0.00,,---,0.15,0.00,VWS V14.00,2013-04-01 02:07:00,
2013-03-31 21:15:00,59.5,56.3,29.91,NW,309,0.0,0.0,89,0.00,,---,0.15,0.00,VWS V14.00,2013-04-01 02:15:00,
2013-03-31 21:23:00,59.2,55.7,29.92,NW,309,0.0,0.0,88,0.00,,---,0.15,0.00,VWS V14.00,2013-04-01 02:23:00,
2013-03-31 21:31:00,59.0,55.8,29.92,NW,309,0.0,0.0,89,0.00,,---,0.15,0.00,VWS V14.00,2013-04-01 02:31:00,
2013-03-31 21:37:00,58.9,56.0,29.92,NW,309,0.0,0.0,90,0.00,,---,0.15,0.00,VWS V14.00,2013-04-01 02:37:00,
2013-03-31 21:43:00,58.5,55.6,29.92,NW,309,0.0,0.0,90,0.00,,---,0.15,0.00,VWS V14.00,2013-04-01 02:43:00,
2013-03-31 21:51:00,58.2,55.3,29.93,NW,309,0.0,0.0,90,0.00,,---,0.15,0.00,VWS V14.00,2013-04-01 02:51:00,
2013-03-31 21:59:00,58.0,55.1,29.93,NW,309,0.0,0.0,90,0.00,,---,0.15,0.00,VWS V14.00,2013-04-01 02:59:00,
2013-03-31 22:07:00,57.8,54.9,29.93,NW,309,0.0,0.0,90,0.00,,---,0.15,0.00,VWS V14.00,2013-04-01 03:07:00,
2013-03-31 22:15:00,57.6,54.7,29.93,NW,309,0.0,0.0,90,0.00,,---,0.15,0.00,VWS V14.00,2013-04-01 03:15:00,
2013-03-31 22:23:00,57.3,54.7,29.94,NW,309,0.0,0.0,91,0.00,,---,0.15,0.00,VWS V14.00,2013-04-01 03:23:00,
2013-03-31 22:31:00,57.1,54.5,29.94,NW,309,0.0,0.0,91,0.00,,---,0.15,0.00,VWS V14.00,2013-04-01 03:31:00,
2013-03-31 22:37:00,57.0,54.4,29.94,NW,309,0.0,0.0,91,0.00,,---,0.15,0.00,VWS V14.00,2013-04-01 03:37:00,
2013-03-31 22:43:00,56.9,54.3,29.94,NW,309,0.0,0.0,91,0.00,,---,0.15,0.00,VWS V14.00,2013-04-01 03:43:00,
2013-03-31 22:52:00,56.5,53.9,29.94,NW,309,0.0,0.0,91,0.00,,---,0.15,0.00,VWS V14.00,2013-04-01 03:52:00,
2013-03-31 23:00:00,56.9,53.7,29.94,NW,309,0.0,0.0,89,0.00,,---,0.15,0.00,VWS V14.00,2013-04-01 04:00:00,
2013-03-31 23:04:00,56.7,54.1,29.94,NW,309,0.0,0.0,91,0.00,,---,0.15,0.00,VWS V14.00,2013-04-01 04:04:00,
2013-03-31 23:07:00,56.7,54.1,29.95,NW,309,0.0,0.0,91,0.00,,---,0.15,0.00,VWS V14.00,2013-04-01 04:07:00,
2013-03-31 23:16:00,56.4,53.8,29.95,NW,309,0.0,0.0,91,0.00,,---,0.15,0.00,VWS V14.00,2013-04-01 04:16:00,
2013-03-31 23:24:00,55.9,53.3,29.95,NW,309,0.0,0.0,91,0.00,,---,0.15,0.00,VWS V14.00,2013-04-01 04:24:00,
2013-03-31 23:32:00,55.7,53.4,29.95,NW,309,0.0,0.0,92,0.00,,---,0.15,0.00,VWS V14.00,2013-04-01 04:32:00,
2013-03-31 23:40:00,55.6,53.3,29.95,NW,309,0.0,0.0,92,0.00,,---,0.15,0.00,VWS V14.00,2013-04-01 04:40:00,
2013-03-31 23:48:00,55.8,53.8,29.95,NW,309,0.0,0.0,93,0.00,,---,0.15,0.00,VWS V14.00,2013-04-01 04:48:00,
2013-03-31 23:56:00,55.4,53.4,29.95,NW,309,0.0,0.0,93,0.00,,---,0.15,0.00,VWS V14.00,2013-04-01 04:56:00,